User: anonymous   Login
Location: Banff
(51.1667°N, 115.5667°W)
Time: 12:25:03
(UTC+00:00)
Language:

deb Explorer IX - Orbit

View from above orbital plane
View from above orbital plane
View from above satellite
View from above satellite

Ground track
Ground track

The orbit data is extracted from the following two-line orbital elements,

1 00085U 61004C   21131.31325540  .00000402  00000-0  10426-3 0  9997
2 00085  38.7730 146.9169 0386963 165.7141 195.4912 14.21663770977752
Epoch (UTC): 11 May 2021 07:31:05
Eccentricity: 0.0386963
inclination: 38.7730°
perigee height: 541 km
apogee height: 1098 km
right ascension of ascending node: 146.9169°
argument of perigee: 165.7141°
revolutions per day: 14.21663770
mean anomaly at epoch: 195.4912°
orbit number at epoch: 97775

The dashed part of the orbit path shows where the satellite is in the earth's shadow,  

DLR